Wind_Speed
1 1 1 4 7 7 6 6 6 8 9 8 9 12 15 14 17 19 19 17 14 11 10 12 18 24 27 29 30 32 34 35 39 39 37 35 35 35 34 34 35 35 33 33
5 5 6 8 9 9 10 11 11 15 17 12 11 11 13 16 16 17 19 20 18 15 12 12 17 22 24 27 31 31 34 38 35 34 34 36 35 33 32 33 34 33 33 34
9 3 5 8 15 16 13 12 9 11 8 11 12 13 16 19 18 19 21 21 21 20 16 11 15 21 24 27 26 31 33 32 33 32 33 33 31 32 34 33 31 32 32 32
3 3 7 1 3 0 6 9 8 8 8 7 9 10 13 17 15 16 19 22 21 19 19 19 16 16 21 22 26 29 30 30 29 31 31 29 28 29 28 28 29 28 26 26
4 11 9 12 6 8 7 4 0 3 6 9 9 11 9 11 14 18 19 20 21 28 27 29 23 15 15 19 24 27 29 31 29 29 27 27 27 25 24 23 19 20 21 23
5 7 6 4 5 1 1 3 7 6 8 11 12 8 8 15 16 17 19 24 26 31 31 28 26 19 16 18 22 26 28 27 25 26 26 25 24 21 20 19 20 17 14 12
11 7 3 9 5 2 5 4 9 12 13 13 9 10 12 14 18 16 19 26 32 30 27 25 22 18 18 16 20 22 20 19 19 20 20 19 18 19 21 20 19 17 15 13
11 6 7 5 3 4 7 8 13 15 15 15 14 11 11 13 17 19 22 25 29 27 25 20 17 15 14 10 3 9 15 17 18 19 22 22 25 23 22 23 22 21 23 23
7 7 3 2 3 9 9 9 12 13 16 16 13 8 9 12 14 17 21 24 28 26 22 19 18 12 3 3 8 14 19 21 24 24 22 20 20 20 22 27 20 18 21 21
5 8 10 6 4 6 8 8 10 11 13 14 11 10 10 8 8 11 15 18 24 22 19 18 18 19 14 10 9 18 23 22 25 28 25 24 24 21 20 21 21 20 19 20
12 13 11 10 3 8 9 9 10 11 11 10 13 13 12 10 10 12 13 20 21 19 17 20 19 17 20 18 17 23 24 22 24 28 30 30 29 24 24 17 17 20 19 21
8 5 0 5 7 7 9 9 10 11 12 10 10 12 12 8 10 13 13 15 17 18 17 19 18 20 22 21 20 21 23 22 22 25 28 26 30 36 34 25 24 25 23 26
4 6 7 10 7 6 9 9 8 8 9 11 9 8 8 7 12 13 15 18 20 19 17 18 19 23 25 26 27 24 23 24 24 26 25 25 25 27 30 36 38 35 31 29
7 7 6 10 4 8 9 8 5 5 7 9 9 8 10 10 15 16 18 17 19 19 20 19 24 25 25 31 35 35 27 29 31 26 25 27 24 23 23 22 24 26 28 28
7 6 7 9 3 5 6 6 4 5 7 9 12 11 10 13 14 16 17 19 17 21 22 24 26 26 29 32 36 33 30 28 28 27 26 23 24 21 21 22 23 22 21 20
11 8 4 4 4 5 6 6 3 7 8 7 10 13 15 19 18 20 23 24 22 21 24 26 29 29 29 31 31 32 31 30 26 25 23 22 22 19 19 19 18 17 16 12
8 3 6 4 5 7 8 7 8 8 9 10 13 14 17 19 23 23 24 27 27 28 25 28 25 27 29 28 25 25 25 26 26 24 21 20 20 20 18 17 17 17 17 15
4 4 5 6 5 6 9 9 11 13 12 15 17 18 20 21 18 21 20 21 25 29 30 29 25 27 27 25 23 22 22 23 22 21 20 21 20 18 17 16 15 14 13 13
8 8 11 12 12 11 11 12 15 16 16 17 20 21 21 22 21 21 21 24 25 24 25 24 24 25 24 22 20 20 20 20 21 20 19 18 18 16 15 14 13 11 10 10
12 15 17 17 17 16 15 16 17 18 17 18 19 20 20 19 19 21 22 26 23 19 18 19 19 21 22 22 20 19 19 19 19 18 16 16 15 14 14 13 10 10 9 9
12 16 18 18 18 18 18 17 19 20 18 19 20 19 19 19 18 16 19 18 18 17 18 20 20 19 19 18 19 18 18 17 17 16 15 13 13 12 11 11 10 9 8 8
13 15 17 17 18 19 19 19 19 18 18 18 17 17 18 18 19 22 21 17 16 17 18 19 19 19 17 17 17 17 17 16 15 14 13 11 11 10 11 10 9 8 7 5
15 17 17 17 18 18 18 19 18 18 18 17 17 17 17 16 13 12 14 16 14 15 15 15 14 16 16 16 16 15 15 14 13 12 11 11 10 9 8 7 6 5 4 5
16 16 16 15 14 15 16 16 16 16 16 16 15 13 12 13 15 14 13 13 14 14 13 12 13 14 14 13 13 13 12 11 10 9 8 8 7 6 5 4 4 5 5 6
14 14 12 12 12 12 11 11 12 12 12 13 14 14 14 12 11 9 9 9 10 9 9 11 12 12 11 11 10 10 9 9 8 7 6 5 5 4 4 5 5 6 7 7
11 12 12 12 10 8 7 6 8 7 8 10 11 11 11 10 9 8 8 8 9 9 9 10 10 9 9 9 8 8 7 6 6 5 4 4 4 5 6 7 7 7 7 7
11 9 9 10 10 9 8 7 7 8 8 8 9 8 8 7 7 7 7 7 7 8 8 8 7 6 6 5 6 5 5 5 5 4 4 5 6 6 7 7 7 7 7 7
Wind_Direction
136 116 254 202 199 189 212 237 233 255 250 262 267 277 299 314 306 308 310 307 305 279 253 227 223 217 212 215 211 209 210 213 216 215 217 218 221 223 224 224 225 228 230 231
257 264 247 259 253 249 243 241 250 250 259 264 290 291 302 308 310 315 307 300 301 305 264 236 222 224 218 214 213 208 210 216 218 218 217 218 220 223 225 227 227 228 231 231
252 307 292 264 237 236 240 237 247 269 293 325 302 300 304 303 305 309 311 308 305 304 305 268 234 222 221 219 215 210 213 216 216 215 216 218 217 218 223 226 229 229 229 231
227 217 238 352 116 209 259 263 273 287 316 327 320 318 305 292 303 327 324 317 308 301 300 295 291 255 240 224 215 213 213 215 214 213 213 213 212 215 220 222 223 228 230 231
220 219 282 289 251 236 228 257 235 22 350 339 331 311 289 11 337 327 324 315 311 303 298 293 285 283 242 231 219 216 217 215 211 210 210 207 207 207 212 216 216 215 220 223
193 236 238 135 132 83 343 236 112 336 322 335 333 322 349 335 329 335 333 327 321 315 303 290 284 284 255 231 225 223 218 219 209 204 204 205 203 191 183 191 201 198 191 197
220 238 253 258 265 3 217 75 350 343 329 329 321 330 323 324 329 341 346 336 331 323 312 300 293 285 261 243 233 230 220 208 200 196 194 174 161 166 165 160 153 141 135 127
224 229 240 219 192 221 13 332 344 331 324 320 319 324 336 341 338 343 348 345 338 330 325 327 315 289 269 246 170 151 141 135 138 143 155 157 155 149 151 147 134 120 113 101
208 213 95 138 26 21 10 354 348 335 328 316 307 329 342 342 354 348 355 349 343 337 335 345 349 331 292 110 135 133 125 117 115 119 120 118 114 118 122 128 121 114 109 101
214 228 245 298 76 31 3 354 338 340 337 344 328 307 314 331 350 360 360 359 346 345 345 353 11 28 41 69 104 109 97 97 102 100 96 101 108 111 111 112 119 118 113 110
249 254 269 262 44 11 348 350 337 331 338 344 337 337 337 348 349 14 7 11 353 344 356 0 359 32 52 63 90 89 89 90 90 91 90 83 75 84 92 96 118 116 113 114
259 72 284 293 340 345 336 346 342 334 333 344 349 340 344 1 1 22 32 25 10 348 12 14 11 23 47 72 82 87 85 83 85 89 88 88 88 79 77 96 107 111 113 113
10 334 309 295 318 8 343 350 355 345 349 342 355 357 14 24 35 40 40 33 41 7 15 26 32 39 48 70 74 69 81 85 82 84 86 90 90 93 93 80 84 89 92 93
27 353 305 51 357 2 358 347 359 11 15 7 1 21 40 38 45 42 41 43 41 33 23 33 45 39 56 75 78 80 70 76 81 79 82 88 88 88 93 95 93 86 87 93
2 342 303 296 17 12 358 355 352 32 38 32 30 37 51 62 50 45 43 51 45 53 33 39 41 43 59 71 76 74 72 70 76 77 80 86 89 90 97 98 97 96 91 85
321 317 7 55 46 33 20 9 26 49 56 53 60 59 65 73 72 65 60 58 49 40 37 41 40 41 56 67 71 74 74 75 73 78 74 77 85 89 90 91 90 87 81 79
323 316 346 9 32 49 53 48 59 63 67 69 71 75 77 74 67 56 50 47 50 46 42 46 43 50 56 64 71 71 71 70 73 70 72 75 78 80 83 84 82 79 74 65
28 35 40 44 53 74 70 69 73 73 75 80 78 73 68 66 63 55 51 52 53 47 37 40 47 52 55 58 64 68 71 72 72 72 72 72 75 77 81 84 85 86 80 68
50 64 66 67 73 80 80 80 78 81 82 83 81 74 72 70 67 61 56 52 48 43 29 35 43 50 53 55 64 69 72 75 76 75 77 78 77 77 78 79 78 76 73 66
70 70 73 73 73 81 83 79 84 80 76 80 80 77 72 66 67 68 65 60 50 45 36 37 44 49 52 54 61 66 71 73 77 77 77 78 80 81 80 76 76 74 68 63
80 80 78 76 76 76 78 81 85 80 75 74 77 75 73 65 60 61 60 57 38 39 42 41 44 45 48 52 58 62 65 67 69 71 72 75 76 73 72 69 67 65 62 60
84 84 83 83 82 76 71 73 75 76 75 75 76 80 78 72 66 64 58 56 43 43 47 46 44 48 55 58 62 64 66 67 67 68 68 68 70 70 67 64 61 57 52 42
82 82 79 78 82 83 77 73 74 77 77 74 75 76 73 66 57 61 59 45 52 52 55 51 51 51 57 62 64 64 65 67 67 67 64 62 61 61 60 58 52 44 27 9
86 84 84 85 86 85 82 81 81 80 81 76 70 64 69 73 68 63 64 53 53 54 54 48 49 52 59 61 61 60 59 59 58 56 54 58 58 57 54 40 21 5 352 344
83 84 84 85 83 82 86 89 87 83 80 77 72 69 68 70 80 72 66 57 53 52 48 45 52 54 58 58 58 57 54 49 49 47 48 47 38 28 15 0 350 335 329 326
82 81 79 74 77 82 85 89 88 87 93 88 79 76 76 75 74 69 60 54 46 41 41 35 43 45 45 46 42 39 33 25 22 22 24 14 6 356 344 335 330 327 320 314
81 86 90 82 69 68 70 73 85 78 74 82 86 76 73 66 59 52 47 39 35 33 31 33 34 36 35 28 15 7 -0 351 344 352 352 346 340 330 324 322 316 311 310 308
Height
711 713 713 713 712 712 715 714 721 710 710 701 696 692 686 685 682 677 672 671 667 666 666 669 675 678 679 683 687 691 696 701 701 704 711 717 722 725 729 732 735 740 743 745
720 714 716 717 711 708 707 708 708 705 702 689 690 687 690 688 684 682 676 669 666 662 661 662 664 668 671 673 676 682 685 686 692 698 701 704 708 715 721 723 726 730 733 736
720 720 718 720 708 703 700 695 698 703 694 691 696 695 694 689 687 686 680 675 668 663 660 659 659 661 663 664 669 671 674 678 682 687 690 694 699 704 707 713 719 720 722 726
723 731 729 696 699 700 702 698 695 696 697 698 697 696 694 688 686 688 686 680 673 666 660 655 654 654 655 657 660 663 665 669 674 677 681 686 691 695 701 705 708 712 715 718
729 719 704 704 696 698 700 698 699 698 698 697 695 694 685 686 691 689 686 681 674 666 659 652 650 648 648 650 651 655 656 658 661 668 674 678 681 686 693 698 702 703 707 709
732 726 723 696 699 697 696 705 697 701 700 698 696 697 689 689 689 686 683 679 673 667 659 651 644 644 643 642 643 645 646 651 654 659 665 671 676 679 684 691 696 701 702 704
726 722 709 698 696 697 706 709 702 701 699 697 698 696 694 691 687 686 683 677 673 667 659 649 644 642 638 636 636 640 643 646 650 655 660 665 672 676 680 687 693 698 703 705
720 724 724 696 700 704 705 702 703 699 697 696 693 694 693 693 689 685 682 676 674 669 660 653 647 640 634 633 637 640 642 644 648 653 660 665 667 672 679 686 696 701 705 710
704 702 700 700 700 704 708 707 706 707 703 696 691 691 696 692 690 687 683 681 681 677 670 661 651 643 638 642 643 644 644 647 650 655 662 667 672 678 683 680 699 704 705 712
704 698 698 697 702 714 716 715 714 711 707 703 699 695 693 691 692 688 687 684 689 685 679 670 660 652 648 646 650 649 647 651 653 657 667 672 676 683 690 690 698 705 709 714
699 697 697 699 710 717 719 718 718 716 714 711 709 702 704 699 700 694 693 692 696 694 686 677 670 661 653 652 654 654 656 660 662 663 669 680 685 689 694 700 704 708 715 718
698 706 711 710 713 721 718 718 718 718 715 715 714 711 710 709 708 702 696 696 701 701 691 684 681 670 660 659 663 663 665 669 672 674 675 688 693 699 704 708 710 714 722 722
710 720 719 717 716 725 723 721 721 722 721 719 717 717 716 716 713 712 708 704 697 707 700 691 687 679 673 670 670 675 675 677 682 684 690 697 702 705 712 722 722 725 730 734
726 728 719 726 724 729 729 729 726 725 726 726 725 722 722 722 718 718 713 712 709 711 708 700 689 691 685 681 681 681 689 688 688 697 702 703 714 718 722 727 733 737 740 741
732 732 733 732 733 734 733 732 729 730 728 730 733 731 730 725 729 729 725 719 723 719 718 709 703 699 696 692 689 691 696 700 704 710 713 719 720 729 733 737 741 745 749 753
734 730 732 734 737 738 736 738 735 735 735 737 738 738 738 734 737 737 733 729 730 726 724 720 716 713 709 705 704 707 712 716 720 721 726 728 728 738 740 744 746 750 754 757
735 728 735 735 738 741 742 743 742 743 744 745 745 744 744 742 740 742 741 736 736 733 736 729 729 726 723 719 723 724 726 727 727 731 736 738 739 743 748 751 754 759 761 764
746 746 745 743 742 744 745 749 750 750 750 751 751 751 750 747 750 751 751 749 747 748 747 743 741 736 735 733 733 735 736 736 739 742 744 746 749 753 755 757 761 764 766 767
751 750 750 749 750 751 753 756 756 757 758 758 757 758 759 759 760 760 759 757 756 756 759 756 752 749 747 746 745 745 746 747 747 751 754 756 759 761 763 765 768 770 771 772
758 758 757 757 758 759 761 763 763 763 764 764 763 765 767 769 768 767 767 766 768 770 769 767 765 761 757 756 754 756 756 758 758 759 761 763 764 766 770 771 772 772 774 776
766 766 765 766 768 769 769 769 769 770 772 772 772 774 776 777 775 774 772 774 779 776 773 772 770 767 764 764 763 764 764 766 766 767 769 771 771 773 773 773 774 777 778 777
772 772 772 772 774 775 776 776 777 778 778 779 780 781 783 784 784 783 784 783 782 781 779 778 778 775 775 774 772 773 772 773 773 774 776 777 776 777 777 777 778 780 781 782
777 778 778 779 780 782 784 784 785 786 787 788 788 789 788 789 789 789 789 791 790 789 789 788 787 784 781 780 780 780 780 781 782 781 782 781 781 780 781 781 783 783 784 784
782 783 784 786 787 787 788 790 791 793 794 794 794 794 793 794 795 796 797 797 796 795 795 794 791 788 787 786 786 786 786 786 786 786 786 785 785 785 785 785 785 785 784 783
787 788 789 790 791 793 795 796 797 798 799 799 799 800 800 800 800 803 803 802 802 801 799 796 794 793 792 791 791 791 790 790 789 789 788 788 787 787 786 786 785 784 783 782
792 794 795 796 797 798 799 799 800 801 802 803 804 805 805 806 806 806 806 805 804 803 801 799 797 796 795 794 793 793 793 792 791 790 790 789 788 787 786 785 784 783 782 780
798 798 800 801 803 804 804 803 804 805 805 806 807 808 809 809 809 809 808 808 806 805 803 802 800 799 798 797 796 796 795 793 791 790 789 788 787 787 785 784 783 782 780 779